Date,TemperatureHighF,TemperatureAvgF,TemperatureLowF,DewpointHighF,DewpointAvgF,DewpointLowF,HumidityHigh,HumidityAvg,HumidityLow,PressureMaxIn,PressureMinIn,WindSpeedMaxMPH,WindSpeedAvgMPH,GustSpeedMaxMPH,PrecipitationSumIn
2013-1-1,60.1,49.0,40.7,42.0,36.1,25.0,89,64,36,30.27,30.12,2,0,4,0.00
2013-1-2,66.9,52.5,42.1,37.0,28.1,16.0,73,43,21,30.16,30.06,3,0,9,0.00
2013-1-3,71.5,51.1,39.2,43.0,32.6,24.0,76,54,17,30.21,30.07,2,0,6,0.00
2013-1-4,67.0,49.6,38.4,32.0,27.7,20.0,71,48,17,30.31,30.20,1,0,5,0.00
2013-1-5,66.2,49.9,37.9,41.0,33.5,26.0,85,57,25,30.32,30.21,4,0,6,0.00
2013-1-6,57.8,49.2,42.7,48.0,43.9,37.0,97,82,63,30.24,30.05,2,0,6,0.10
2013-1-7,67.1,51.3,42.6,46.0,40.1,29.0,98,71,25,30.12,30.01,2,0,5,0.00
2013-1-8,69.9,53.5,41.4,50.0,42.5,35.0,88,69,38,30.14,30.04,3,0,6,0.00
2013-1-9,71.4,54.9,45.5,51.0,44.6,37.0,92,71,30,30.16,30.05,3,0,4,0.00
2013-1-10,56.2,50.7,43.5,50.0,39.8,24.0,95,68,41,30.12,29.94,5,0,9,0.02
2013-1-11,56.1,43.6,32.3,33.0,29.2,22.0,89,60,28,30.22,30.09,2,0,5,0.00
2013-1-12,56.8,43.0,31.9,32.0,27.7,21.0,80,58,26,30.19,30.10,4,0,8,0.00
2013-1-13,56.9,44.5,34.4,34.0,27.3,20.0,86,55,26,30.19,30.09,4,0,8,0.00
2013-1-14,56.1,45.5,35.9,23.0,8.5,-1.0,53,25,10,30.36,30.15,4,0,12,0.00
2013-1-15,60.1,46.5,34.3,29.0,22.2,14.0,63,41,20,30.48,30.35,3,0,6,0.00
2013-1-16,69.0,49.5,38.4,38.0,30.7,-99.9,72,54,27,30.39,30.14,2,0,4,0.00
2013-1-17,79.7,59.2,44.4,36.0,28.2,20.0,59,35,11,30.20,30.06,4,0,6,0.00
2013-1-18,80.9,60.0,45.5,39.0,29.0,25.0,63,34,13,30.15,30.07,3,0,6,0.00
2013-1-19,79.7,60.7,47.1,38.0,27.4,20.0,49,31,12,30.20,30.09,1,0,3,0.00
2013-1-20,80.3,60.5,46.1,35.0,25.8,18.0,54,30,10,30.16,30.02,1,0,3,0.00
2013-1-21,82.9,63.6,47.1,30.0,22.3,10.0,45,24,10,30.10,30.02,3,0,8,0.00
2013-1-22,81.2,61.4,45.6,36.0,27.1,19.0,57,31,10,30.11,30.04,2,0,4,0.00
2013-1-23,76.5,63.6,53.5,49.0,36.5,28.0,58,38,23,30.16,30.03,4,0,8,0.00
2013-1-24,67.9,59.6,54.2,57.0,53.6,44.0,93,81,58,30.21,30.12,2,0,6,0.27
2013-1-25,64.7,60.3,58.0,63.0,58.8,56.0,98,95,89,30.13,29.97,1,0,4,0.45
2013-1-26,66.8,59.2,54.6,62.0,58.1,54.0,98,96,83,30.03,29.91,2,0,7,0.16
2013-1-27,57.9,52.8,47.5,54.0,49.5,45.0,99,89,67,30.07,30.00,5,1,12,0.03
2013-1-28,59.9,49.2,38.7,46.0,38.2,30.0,94,69,34,30.21,30.03,4,0,7,0.00
2013-1-29,60.4,49.0,39.4,43.0,38.3,34.0,90,68,46,30.27,30.19,4,0,8,0.00
2013-1-30,67.2,49.0,41.3,46.0,39.3,-99.9,95,75,37,30.35,30.24,0,-14,2,0.00
2013-1-31,78.8,59.1,44.0,48.0,43.4,38.0,87,61,23,30.27,30.11,2,0,6,0.00
2013-2-1,75.2,60.5,46.8,48.0,43.6,38.0,79,56,31,30.19,30.12,3,0,6,0.00
2013-2-2,75.7,62.5,52.7,53.0,47.7,43.0,82,60,34,30.21,30.11,1,0,2,0.00
2013-2-3,74.5,62.4,49.5,54.0,47.9,45.0,87,62,38,30.15,30.03,3,0,6,0.00
2013-2-4,71.9,56.1,45.4,55.0,48.9,43.0,96,79,52,30.11,30.00,2,0,4,0.00
2013-2-5,56.0,51.5,47.8,51.0,48.9,47.0,98,91,81,30.14,30.02,1,0,3,0.00
2013-2-6,63.9,54.2,46.0,50.0,47.6,45.0,95,79,56,30.14,30.04,4,0,8,0.00
2013-2-7,63.6,52.0,42.0,51.0,46.4,41.0,98,82,63,30.16,30.04,3,0,7,0.00
2013-2-8,53.2,46.7,40.8,47.0,42.5,39.0,95,85,67,30.04,29.93,3,0,8,0.17
2013-2-9,57.8,46.1,36.0,42.0,38.7,35.0,97,77,46,30.15,29.97,5,0,8,0.17
2013-2-10,54.7,47.6,38.4,44.0,40.0,34.0,87,76,60,30.14,30.05,3,0,5,0.00
2013-2-11,62.8,49.1,37.2,45.0,37.9,20.0,95,70,20,30.27,30.09,3,0,7,0.00
2013-2-12,65.1,49.4,36.3,42.0,36.9,31.0,83,65,36,30.38,30.27,2,0,5,0.00
2013-2-13,68.8,51.9,38.6,48.0,39.4,35.0,88,66,33,30.29,30.16,3,0,6,0.00
2013-2-14,72.4,55.7,40.7,48.0,43.1,37.0,91,66,37,30.24,30.08,2,0,6,0.00
2013-2-15,81.9,64.4,48.3,40.0,29.9,17.0,70,33,10,30.20,30.12,5,1,9,0.00
2013-2-16,83.4,64.8,48.1,38.0,26.4,14.0,49,27,10,30.16,30.00,3,0,7,0.00
2013-2-17,66.9,54.3,43.6,51.0,40.3,25.0,91,62,32,30.06,29.95,6,1,9,0.00
2013-2-18,64.8,53.9,49.2,48.0,45.8,44.0,88,75,52,30.09,29.99,5,1,9,0.00
2013-2-19,51.2,49.1,44.7,48.0,43.6,40.0,96,82,67,30.02,29.75,2,0,8,0.39
2013-2-20,58.1,48.4,37.2,43.0,37.7,30.0,94,69,38,30.04,29.74,2,0,11,0.39
2013-2-21,61.8,49.4,42.1,46.0,41.7,37.0,89,76,44,30.12,30.01,4,0,7,0.01
2013-2-22,67.6,51.3,37.4,42.0,37.4,30.0,91,64,27,30.23,30.12,2,0,9,0.01
2013-2-23,66.3,51.9,38.9,47.0,40.0,33.0,91,67,33,30.20,29.96,4,0,8,0.00
2013-2-24,67.5,55.1,42.5,46.0,25.0,5.0,96,44,9,30.23,30.01,4,0,11,0.00
2013-2-25,71.3,53.4,38.6,37.0,27.3,21.0,69,41,16,30.24,30.11,4,0,9,0.00
2013-2-26,72.4,53.7,38.1,46.0,39.1,31.0,84,61,30,30.14,30.01,2,0,6,0.00
2013-2-27,76.8,59.0,44.0,38.0,27.9,18.0,70,34,11,30.29,30.14,5,0,10,0.00
2013-2-28,82.1,61.5,43.3,35.0,26.4,15.0,62,31,10,30.33,30.25,2,0,7,0.00
2013-3-1,87.5,68.0,50.2,35.0,28.1,20.0,50,26,9,30.32,30.16,6,1,9,0.00
2013-3-2,87.3,67.9,53.6,38.0,32.3,27.0,52,30,13,30.22,30.09,3,0,6,0.00
2013-3-3,73.0,59.3,50.7,52.0,42.8,33.0,92,57,29,30.12,30.01,3,0,7,0.00
2013-3-4,68.7,58.1,51.2,52.0,49.9,47.0,91,75,52,30.13,30.04,4,0,9,0.00
2013-3-5,61.7,54.2,50.6,53.0,50.2,48.0,94,86,72,30.16,30.06,3,0,9,0.01
2013-3-6,64.9,55.5,47.7,49.0,45.5,44.0,92,71,47,30.18,30.05,4,0,7,0.01
2013-3-7,57.8,52.9,49.6,50.0,47.6,42.0,95,83,67,30.04,29.89,4,0,8,0.02
2013-3-8,54.2,49.9,46.3,48.0,44.7,41.0,96,83,63,30.07,29.80,5,0,9,0.27
2013-3-9,61.0,53.0,47.0,48.0,46.0,44.0,95,78,57,30.24,30.07,7,1,8,0.01
2013-3-10,72.4,57.0,42.5,50.0,41.6,32.0,93,62,26,30.29,30.17,5,0,8,0.01
2013-3-11,79.0,59.4,43.0,47.0,41.0,36.0,83,55,25,30.20,30.07,3,0,6,0.00
2013-3-12,80.6,62.2,44.8,52.0,46.9,40.0,91,63,26,30.11,30.02,1,0,4,0.00
2013-3-13,86.8,64.9,48.5,55.0,49.6,42.0,89,63,23,30.12,30.03,2,0,4,0.00
2013-3-14,87.0,64.3,48.0,57.0,51.7,47.0,97,69,31,30.10,30.02,2,0,3,0.00
2013-3-15,79.0,60.9,50.3,56.0,52.5,49.0,97,77,37,30.06,29.96,4,0,7,0.00
2013-3-16,71.5,56.3,47.7,54.0,50.5,47.0,97,82,52,30.00,29.92,5,1,10,0.00
2013-3-17,71.1,57.7,51.2,54.0,51.2,50.0,95,80,49,30.03,29.95,7,0,7,0.00
2013-3-18,67.7,56.8,52.7,52.0,50.6,49.0,91,80,57,30.11,30.01,2,0,5,0.00
2013-3-19,53.9,52.1,50.4,50.0,49.5,48.0,93,91,87,30.14,30.07,1,0,3,0.00
2013-3-20,72.2,60.4,50.1,56.0,52.1,49.0,95,76,52,30.13,30.00,3,0,6,0.00
2013-3-21,72.0,59.7,50.2,54.0,51.1,48.0,93,75,48,29.99,29.83,5,0,8,0.00
2013-3-22,71.2,59.3,51.3,55.0,51.5,48.0,93,77,53,29.94,29.84,5,0,8,0.00
2013-3-23,72.9,57.8,47.1,54.0,50.6,45.0,94,79,49,30.04,29.93,4,0,7,0.00
2013-3-24,78.5,61.1,49.6,54.0,51.5,48.0,96,74,41,30.04,29.91,5,0,6,0.00
2013-3-25,79.7,60.3,48.4,55.0,51.4,47.0,97,76,39,30.00,29.91,5,0,7,0.00
2013-3-26,71.8,59.1,52.5,55.0,52.2,50.0,96,80,53,30.00,29.92,5,0,7,0.00
2013-3-27,68.3,58.2,52.9,54.0,51.5,50.0,92,79,59,30.07,29.95,5,1,8,0.00
2013-3-28,78.0,61.3,52.4,56.0,52.7,50.0,93,76,43,30.10,30.02,2,0,7,0.00
2013-3-29,77.5,61.2,54.5,58.0,54.7,53.0,95,81,51,30.13,30.05,7,0,7,0.00
2013-3-30,77.5,61.7,53.9,58.0,53.8,49.0,95,77,49,30.15,30.07,5,0,8,0.00
2013-3-31,70.9,60.2,51.5,56.0,53.3,49.0,95,79,54,30.15,30.09,7,0,10,0.00
2013-4-1,70.6,59.4,53.3,53.0,51.6,49.0,92,77,49,30.19,30.10,2,0,8,0.00
2013-4-2,72.9,59.8,51.3,55.0,52.3,50.0,95,78,51,30.12,30.01,4,0,7,0.00
2013-4-3,80.4,61.2,51.8,58.0,53.7,50.0,96,79,42,30.11,30.00,3,0,7,0.00
2013-4-4,78.3,64.2,55.2,56.0,53.9,51.0,95,72,43,30.12,30.03,4,0,5,0.00
2013-4-5,70.0,59.8,55.3,58.0,54.9,53.0,95,84,62,30.11,30.02,4,0,8,0.00
2013-4-6,72.3,61.7,55.4,56.0,53.9,52.0,89,76,57,30.11,29.99,6,1,10,0.00
2013-4-7,72.3,59.7,49.6,56.0,52.9,48.0,96,80,52,29.99,29.84,3,0,7,0.00
2013-4-8,65.3,57.8,52.0,54.0,47.2,40.0,92,70,42,29.85,29.71,6,1,10,0.00
2013-4-9,73.9,59.2,44.9,47.0,39.9,27.0,87,54,22,30.03,29.85,4,0,11,0.00
2013-4-10,83.6,63.4,47.1,50.0,38.4,22.0,83,46,11,30.11,30.02,4,0,9,0.00
2013-4-11,74.9,60.9,48.6,54.0,46.7,36.0,86,63,29,30.03,29.82,8,1,12,0.00
2013-4-12,76.7,61.0,55.1,56.0,52.6,51.0,90,76,47,29.92,29.80,6,0,10,0.00
2013-4-13,60.4,56.8,54.2,55.0,53.1,50.0,93,87,83,29.94,29.87,4,1,8,0.00
2013-4-14,64.0,55.7,52.2,54.0,50.6,49.0,92,83,69,29.91,29.86,7,1,9,0.00
2013-4-15,60.9,56.2,53.0,54.0,50.9,48.0,89,82,71,29.95,29.87,6,1,8,0.00
2013-4-16,63.4,54.8,47.4,48.0,44.0,38.0,85,69,45,30.02,29.90,7,0,12,0.00
2013-4-17,73.6,58.9,42.6,43.0,32.2,22.0,86,43,15,30.15,30.02,4,0,9,0.00
2013-4-18,81.3,65.6,48.9,33.0,23.2,14.0,54,23,8,30.20,30.12,6,1,12,0.00
2013-4-19,88.6,68.0,48.4,38.0,28.9,18.0,59,29,9,30.17,29.99,3,0,12,0.00
2013-4-20,87.0,67.5,48.8,52.0,43.9,32.0,81,47,21,30.02,29.89,4,0,7,0.00
2013-4-21,83.8,64.0,50.4,56.0,52.4,48.0,95,70,30,30.03,29.95,6,1,8,0.00
2013-4-22,77.1,60.3,52.5,56.0,52.7,51.0,94,78,43,30.03,29.93,4,1,8,0.00
2013-4-23,77.2,61.2,54.5,55.0,51.9,50.0,87,73,46,30.00,29.87,3,0,7,0.00
2013-4-24,60.5,57.7,55.5,55.0,52.6,49.0,92,83,68,30.01,29.92,3,0,6,0.03
2013-4-25,71.6,61.1,54.1,53.0,51.8,50.0,92,73,48,30.14,29.99,3,0,5,0.03
2013-4-26,80.2,63.6,48.9,55.0,51.3,48.0,97,68,36,30.17,30.11,3,0,6,0.00
2013-4-27,81.6,64.7,50.3,59.0,54.6,49.0,95,73,47,30.18,30.01,3,0,5,0.00
2013-4-28,84.2,63.4,55.0,61.0,56.0,54.0,95,79,44,30.05,29.88,6,0,8,0.00
2013-4-29,75.7,61.4,54.9,59.0,55.3,53.0,96,82,56,29.93,29.81,7,1,7,0.00
2013-4-30,68.9,60.2,56.0,56.0,53.9,52.0,90,80,63,29.92,29.84,4,1,10,0.00
2013-5-1,78.3,64.7,57.2,58.0,55.9,55.0,91,75,48,30.11,29.92,7,0,10,0.00
2013-5-2,93.9,73.1,55.0,58.0,45.4,7.0,95,51,4,30.13,29.98,6,0,7,0.00
2013-5-3,95.7,75.8,57.5,53.0,33.4,11.0,68,29,5,30.03,29.80,3,0,7,0.00
2013-5-4,71.9,62.3,54.6,56.0,54.0,49.0,94,75,58,29.88,29.77,6,1,13,0.00
2013-5-5,64.7,59.8,56.3,55.0,53.1,51.0,92,79,65,29.98,29.85,7,1,11,0.01
2013-5-6,64.8,59.6,55.5,58.0,55.8,53.0,97,87,66,30.05,29.93,4,0,9,0.48
2013-5-7,70.6,60.7,54.4,56.0,52.0,47.0,94,75,47,30.10,30.01,4,0,9,0.15
2013-5-8,69.1,61.2,52.5,56.0,52.4,47.0,95,74,55,30.12,30.09,6,0,6,0.00
2013-5-9,72.5,62.1,50.8,57.0,53.9,49.0,95,76,55,30.12,30.05,4,1,8,0.00
2013-5-10,80.7,67.4,56.5,61.0,57.2,54.0,92,72,48,30.10,30.02,5,0,6,0.00
2013-5-11,91.1,71.5,57.5,64.0,58.1,-99.9,97,68,37,30.09,0.00,3,-13,5,0.00
2013-5-12,96.2,76.1,59.1,65.0,58.3,49.0,97,61,23,30.06,29.92,1,0,5,0.00
2013-5-13,99.1,81.7,62.8,61.0,53.8,46.0,81,43,20,29.97,29.88,3,0,4,0.00
2013-5-14,86.4,70.3,58.7,60.0,55.9,52.0,87,63,37,30.02,29.91,4,0,8,0.00
2013-5-15,75.7,64.2,57.7,57.0,55.3,54.0,87,74,52,30.05,29.97,5,1,8,0.00
2013-5-16,76.0,64.6,58.6,59.0,55.6,53.0,86,74,53,30.00,29.92,4,1,9,0.00
2013-5-17,73.4,64.9,59.6,59.0,56.2,54.0,85,74,58,30.03,29.93,6,1,10,0.00
2013-5-18,74.1,65.1,58.4,58.0,56.4,54.0,91,75,56,30.05,29.99,4,0,9,0.00
2013-5-19,77.2,65.2,54.8,59.0,56.7,53.0,95,76,50,30.01,29.90,5,1,8,0.00
2013-5-20,86.8,67.2,55.8,62.0,58.1,54.0,95,76,41,29.97,29.90,5,0,7,0.00
2013-5-21,83.6,66.8,58.8,63.0,59.0,57.0,95,78,44,29.96,29.86,5,1,8,0.00
2013-5-22,74.5,65.2,60.5,59.0,56.0,54.0,87,73,56,29.88,29.80,4,1,10,0.00
2013-5-23,70.6,63.4,57.4,55.0,54.0,51.0,87,72,55,29.96,29.84,6,1,11,0.00
2013-5-24,72.4,62.8,54.9,56.0,52.8,51.0,86,71,55,30.02,29.94,7,1,8,0.00
2013-5-25,75.3,62.4,52.2,56.0,52.8,49.0,90,72,48,30.04,29.99,4,1,9,0.00
2013-5-26,71.9,62.6,54.6,56.0,53.7,50.0,88,73,55,30.07,30.01,7,1,9,0.00
2013-5-27,77.0,63.7,53.0,59.0,55.5,51.0,94,76,48,30.03,29.89,9,1,9,0.00
2013-5-28,76.6,66.6,59.8,59.0,56.9,55.0,88,72,54,29.91,29.78,7,1,10,0.00
2013-5-29,82.4,68.3,58.4,62.0,58.4,56.0,93,73,44,29.83,29.74,5,1,9,0.00
2013-5-30,78.1,66.1,57.0,62.0,58.5,56.0,96,78,52,29.91,29.78,4,1,9,0.00
2013-5-31,83.2,67.7,60.1,63.0,59.3,57.0,91,76,49,29.93,29.83,6,1,9,0.00
2013-6-1,87.0,68.5,61.5,65.0,60.9,59.0,92,78,47,29.88,29.78,7,1,9,0.00
2013-6-2,71.0,63.8,60.7,62.0,59.3,57.0,92,85,70,29.86,29.79,5,1,8,0.00
2013-6-3,75.4,64.9,59.1,61.0,57.7,56.0,94,78,58,29.92,29.82,6,1,9,0.00
2013-6-4,76.5,65.4,59.5,60.0,57.5,56.0,91,77,54,29.99,29.91,5,0,8,0.00
2013-6-5,79.4,66.5,58.7,60.0,57.6,56.0,91,75,51,30.02,29.92,4,0,7,0.00
2013-6-6,78.2,66.2,58.6,61.0,58.2,56.0,92,77,55,29.97,29.89,3,0,8,0.00
2013-6-7,78.5,64.9,59.2,61.0,58.1,56.0,91,80,53,29.93,29.80,5,0,9,0.00
2013-6-8,72.9,64.0,59.7,61.0,58.0,57.0,91,82,65,29.93,29.81,5,1,10,0.00
2013-6-9,76.7,64.3,59.7,62.0,58.0,56.0,90,81,60,29.95,29.89,6,1,7,0.00
2013-6-10,79.0,67.0,58.5,59.0,56.7,55.0,88,71,45,29.98,29.91,7,0,7,0.00
2013-6-11,85.5,68.9,57.3,63.0,59.4,56.0,96,74,46,29.96,29.89,4,0,8,0.00
2013-6-12,76.7,64.6,60.5,62.0,59.5,58.0,95,84,59,30.04,29.94,3,0,8,0.00
2013-6-13,79.4,68.2,61.3,62.0,59.6,58.0,89,75,53,30.03,29.91,4,0,7,0.00
2013-6-14,76.7,64.6,58.7,61.0,57.6,55.0,91,79,57,29.94,29.87,4,1,10,0.00
2013-6-15,77.4,64.9,57.3,58.0,56.1,54.0,90,75,49,30.00,29.92,5,1,7,0.00
2013-6-16,79.8,68.3,59.3,60.0,57.2,55.0,89,70,46,30.05,29.96,5,1,7,0.00
2013-6-17,83.9,68.2,58.4,63.0,59.1,56.0,96,75,47,30.00,29.91,3,0,8,0.00
2013-6-18,80.1,66.4,56.8,62.0,58.9,56.0,97,79,51,29.94,29.86,5,1,10,0.00
2013-6-19,82.1,69.6,60.4,62.0,57.5,50.0,91,68,37,29.89,29.81,4,0,8,0.00
2013-6-20,83.0,69.7,56.8,61.0,56.7,50.0,96,68,36,29.88,29.81,4,0,7,0.00
2013-6-21,83.9,69.2,58.6,61.0,58.0,55.0,93,70,41,29.92,29.84,4,1,8,0.00
2013-6-22,81.4,67.9,58.7,61.0,58.3,56.0,93,74,48,29.93,29.83,5,1,9,0.00
2013-6-23,77.0,65.3,60.1,60.0,57.7,56.0,88,77,54,29.90,29.82,4,1,8,0.00
2013-6-24,76.9,65.7,60.1,62.0,58.6,55.0,94,79,58,29.97,29.86,4,0,7,0.01
2013-6-25,79.2,69.6,59.3,64.0,61.1,58.0,94,76,56,30.01,29.91,3,0,6,0.00
2013-6-26,89.2,74.1,61.8,66.0,62.8,60.0,96,71,44,30.00,29.91,4,0,8,0.00
2013-6-27,95.1,76.1,62.8,66.0,63.2,61.0,95,69,36,30.03,29.97,5,0,8,0.00
2013-6-28,97.1,78.6,62.8,67.0,62.9,60.0,95,63,33,30.01,29.88,2,0,4,0.00
2013-6-29,98.4,79.7,65.1,68.0,64.2,61.0,92,63,35,29.89,29.74,6,0,7,0.00
2013-6-30,91.2,74.9,66.6,68.0,64.8,62.0,89,73,43,29.82,29.71,4,0,10,0.00
2013-7-1,96.3,75.4,64.9,67.0,62.4,56.0,92,68,27,29.90,29.82,5,0,7,0.00
2013-7-2,83.9,72.3,63.9,68.0,64.5,63.0,96,78,54,30.01,29.89,5,0,8,0.00
2013-7-3,90.2,73.8,63.8,69.0,64.6,62.0,95,75,48,29.95,29.82,3,0,9,0.00
2013-7-4,90.3,71.3,62.8,67.0,62.8,61.0,96,77,45,29.85,29.76,4,1,8,0.00
2013-7-5,83.7,70.4,64.3,65.0,62.4,61.0,89,77,53,29.86,29.79,4,1,7,0.00
2013-7-6,84.8,69.5,65.0,67.0,63.0,61.0,89,80,53,29.85,29.77,3,0,7,0.00
2013-7-7,88.4,74.3,64.5,67.0,63.9,62.0,90,72,48,29.87,29.78,3,0,5,0.00
2013-7-8,90.9,72.9,61.8,67.0,62.9,60.0,96,74,38,29.93,29.85,4,0,4,0.00
2013-7-9,84.1,73.7,63.5,67.0,62.3,56.0,91,70,45,30.02,29.90,3,0,10,0.00
2013-7-10,80.8,71.8,66.6,67.0,64.5,60.0,90,78,50,29.99,29.91,4,0,9,0.00
2013-7-11,77.3,69.9,66.1,68.0,65.0,63.0,92,84,71,29.98,29.91,4,0,4,0.00
2013-7-12,86.1,73.1,64.9,69.0,65.0,62.0,93,78,53,29.95,29.86,5,0,7,0.00
2013-7-13,89.1,73.5,64.3,67.0,63.4,61.0,94,73,45,29.96,29.86,3,0,6,0.00
2013-7-14,91.5,73.5,63.6,67.0,63.3,60.0,94,74,41,29.94,29.84,4,1,8,0.00
2013-7-15,90.4,75.2,63.7,65.0,61.9,56.0,94,67,35,29.88,29.81,3,0,6,0.00
2013-7-16,90.3,73.3,60.1,64.0,58.8,51.0,96,65,33,30.00,29.86,2,0,8,0.00
2013-7-17,91.5,74.0,57.5,63.0,56.6,41.0,96,61,18,30.02,29.95,2,0,4,0.00
2013-7-18,89.9,72.5,58.6,65.0,60.4,57.0,94,69,42,30.00,29.86,3,0,5,0.00
2013-7-19,83.2,69.1,61.6,66.0,62.0,60.0,94,79,55,29.92,29.84,4,0,8,0.00
2013-7-20,73.0,67.1,63.6,64.0,61.9,60.0,90,83,73,29.90,29.81,4,0,6,0.00
2013-7-21,74.2,67.1,63.5,65.0,62.6,61.0,92,86,73,29.94,29.81,4,0,5,0.00
2013-7-22,86.6,72.6,63.4,67.0,63.8,61.0,94,76,50,29.99,29.93,5,0,8,0.00
2013-7-23,86.2,71.8,63.8,67.0,62.8,61.0,93,75,47,30.04,29.94,2,0,5,0.00
2013-7-24,86.5,73.1,62.7,66.0,62.8,60.0,93,72,49,29.98,29.90,2,0,4,0.00
2013-7-25,85.7,71.4,62.6,65.0,62.2,60.0,92,75,49,30.03,29.93,3,0,5,0.00
2013-7-26,85.5,71.6,63.9,68.0,63.4,61.0,91,77,52,30.09,29.99,3,0,5,0.00
2013-7-27,85.7,69.9,62.7,67.0,62.9,61.0,94,80,51,30.02,29.89,4,1,7,0.00
2013-7-28,80.5,67.2,61.3,65.0,61.0,59.0,95,82,55,29.95,29.89,5,1,9,0.00
2013-7-29,80.8,68.3,61.3,62.0,59.0,57.0,87,74,51,30.06,29.93,4,0,7,0.00
2013-7-30,82.7,67.9,59.8,62.0,58.6,57.0,91,74,47,30.14,30.05,4,0,9,0.00
2013-7-31,79.0,65.5,57.6,62.0,56.7,-99.9,94,76,54,30.12,30.01,4,-11,9,0.00
2013-8-1,82.3,69.0,61.6,61.0,58.6,57.0,89,72,47,30.05,29.92,5,0,10,0.00
2013-8-2,83.5,69.0,61.2,62.0,59.4,58.0,89,73,47,29.99,29.92,3,1,8,0.00
2013-8-3,82.4,68.2,61.3,63.0,60.1,58.0,90,77,51,30.01,29.95,5,0,8,0.00
2013-8-4,85.1,70.5,61.9,63.0,60.4,59.0,89,73,46,30.02,29.93,5,0,7,0.00
2013-8-5,86.5,68.4,58.6,61.0,59.1,57.0,96,76,39,30.01,29.94,5,0,7,0.00
2013-8-6,81.7,69.4,60.8,62.0,59.5,58.0,91,73,49,30.05,29.98,4,0,7,0.00
2013-8-7,83.6,68.4,60.1,61.0,58.9,56.0,93,74,42,30.10,29.98,3,0,7,0.00
2013-8-8,86.1,67.4,56.5,62.0,58.7,55.0,96,76,44,30.02,29.92,5,0,6,0.00
2013-8-9,80.5,65.8,57.0,63.0,58.4,55.0,96,79,51,29.99,29.93,3,0,8,0.00
2013-8-10,81.4,67.0,60.0,60.0,57.9,56.0,91,75,48,30.05,29.97,5,0,8,0.00
2013-8-11,85.1,68.1,58.9,62.0,58.9,57.0,94,75,45,30.02,29.91,4,0,7,0.00
2013-8-12,84.7,68.3,60.4,64.0,60.3,58.0,93,78,48,29.99,29.91,4,0,6,0.00
2013-8-13,88.5,69.1,60.9,65.0,61.1,59.0,94,78,45,29.99,29.88,4,0,8,0.00
2013-8-14,89.0,69.0,59.8,66.0,61.2,58.0,96,79,46,29.94,29.85,5,0,9,0.00
2013-8-15,91.7,71.2,61.5,67.0,62.3,60.0,95,77,40,29.96,29.90,5,0,7,0.00
2013-8-16,94.0,75.1,62.2,66.0,62.3,57.0,95,69,36,29.97,29.90,3,0,6,0.00
2013-8-17,91.0,74.2,62.4,66.0,61.1,53.0,94,68,31,29.96,29.82,3,0,5,0.00
2013-8-18,84.6,70.0,61.2,65.0,61.7,60.0,95,77,47,29.93,29.84,5,1,8,0.00
2013-8-19,86.7,70.1,63.0,67.0,62.5,61.0,92,78,49,29.96,29.87,4,0,6,0.00
2013-8-20,89.9,72.9,62.9,65.0,61.8,60.0,93,71,39,29.94,29.84,2,0,5,0.00
2013-8-21,94.1,74.8,61.0,63.0,60.7,59.0,94,66,33,29.93,29.84,1,0,3,0.00
2013-8-22,94.0,78.0,61.8,64.0,57.8,47.0,92,56,21,29.93,29.80,1,0,4,0.00
2013-8-23,93.8,75.3,61.4,63.0,58.9,52.0,91,62,31,29.88,29.74,3,0,6,0.00
2013-8-24,90.6,71.1,58.8,64.0,60.6,57.0,95,73,41,29.89,29.77,3,0,7,0.00
2013-8-25,92.4,73.6,59.4,65.0,59.1,54.0,96,65,34,29.92,29.85,3,0,5,0.00
2013-8-26,92.5,78.2,66.0,68.0,61.5,56.0,83,58,41,29.93,29.82,3,0,5,0.00
2013-8-27,95.2,79.4,67.0,65.0,60.2,48.0,83,55,24,29.85,29.77,3,0,5,0.00
2013-8-28,98.0,80.6,66.8,65.0,61.3,55.0,85,55,32,29.89,29.77,2,0,4,0.00
2013-8-29,100.3,83.0,68.1,65.0,60.6,55.0,81,50,29,29.93,29.87,3,0,8,0.00
2013-8-30,93.5,83.9,74.9,72.0,68.0,60.0,75,60,43,29.98,29.90,4,1,8,0.00
2013-8-31,94.2,82.0,75.4,73.0,70.3,68.0,81,69,49,29.96,29.88,3,0,9,0.00
2013-9-1,95.0,80.1,70.7,73.0,68.8,64.0,86,70,46,29.93,29.84,2,0,4,0.00
2013-9-2,90.1,78.4,66.9,71.0,67.4,65.0,94,71,48,29.92,29.81,2,0,4,0.00
2013-9-3,98.5,81.8,70.3,70.0,65.4,59.0,89,62,30,29.90,29.82,1,0,3,0.00
2013-9-4,101.0,83.7,69.5,69.0,63.6,57.0,87,55,25,29.90,29.83,1,0,3,0.00
2013-9-5,101.3,84.0,69.2,68.0,61.8,53.0,83,52,23,29.89,29.81,2,0,4,0.00
2013-9-6,99.9,82.1,69.4,69.0,60.9,51.0,82,53,20,29.87,29.78,1,0,4,0.00
2013-9-7,100.4,82.4,68.4,65.0,61.4,54.0,82,54,22,29.86,29.79,3,0,8,0.00
2013-9-8,93.8,76.5,65.4,65.0,59.8,48.0,89,61,27,29.85,29.76,3,0,8,0.00
2013-9-9,85.4,72.3,64.3,64.0,61.1,59.0,87,70,47,29.82,29.75,4,0,8,0.00
2013-9-10,82.9,69.0,61.8,64.0,60.4,58.0,91,76,50,29.96,29.82,2,0,7,0.00
2013-9-11,84.6,69.1,62.5,63.0,60.1,59.0,89,74,47,30.02,29.93,6,0,8,0.00
2013-9-12,88.4,71.6,58.4,63.0,60.3,57.0,96,71,37,29.95,29.83,1,0,5,0.00
2013-9-13,89.7,73.2,58.2,63.0,59.5,55.0,95,66,32,29.85,29.68,1,0,4,0.00
2013-9-14,94.3,74.7,60.0,64.0,61.2,58.0,93,67,35,29.73,29.63,2,0,4,0.00
2013-9-15,94.7,75.3,61.8,67.0,62.4,59.0,96,68,32,29.78,29.71,1,0,4,0.00
2013-9-16,94.4,75.2,61.8,66.0,61.0,55.0,92,66,32,29.82,29.74,2,0,6,0.00
2013-9-17,79.4,66.7,60.5,65.0,60.9,59.0,97,83,57,29.84,29.74,4,0,6,0.00
2013-9-18,79.4,67.8,60.1,61.0,59.1,56.0,91,75,52,29.83,29.76,4,0,6,0.00
2013-9-19,82.8,67.6,57.6,64.0,60.6,56.0,95,79,53,29.85,29.78,6,0,7,0.00
2013-9-20,71.5,66.2,63.3,64.0,61.2,59.0,90,84,76,29.90,29.83,4,0,6,0.00
2013-9-21,79.6,67.9,61.1,61.0,59.0,58.0,91,74,51,29.93,29.82,4,0,9,0.00
2013-9-22,77.0,66.3,57.6,60.0,56.5,51.0,95,73,53,29.87,29.80,5,0,9,0.00
2013-9-23,92.7,72.7,55.3,56.0,50.8,43.0,91,53,19,29.91,29.82,1,0,3,0.00
2013-9-24,91.3,73.4,59.2,59.0,50.7,43.0,79,50,22,29.94,29.85,3,0,10,0.00
2013-9-25,75.4,66.3,58.5,62.0,57.6,53.0,86,74,58,29.87,29.73,7,1,11,0.00
2013-9-26,75.8,64.9,57.7,57.0,52.7,46.0,85,66,41,29.90,29.74,6,0,9,0.00
2013-9-27,86.6,67.0,51.3,55.0,44.1,30.0,86,50,13,30.01,29.89,2,0,9,0.00
2013-9-28,91.2,70.2,52.5,50.0,41.6,30.0,74,42,13,30.05,29.97,4,0,10,0.00
2013-9-29,89.0,70.3,53.8,54.0,42.9,30.0,71,43,13,30.07,29.98,2,0,4,0.00
2013-9-30,88.8,69.3,52.5,60.0,49.5,43.0,85,55,23,30.01,29.87,2,0,8,0.00
2013-10-1,80.9,65.9,53.7,60.0,56.1,49.0,90,73,45,29.95,29.88,4,1,8,0.00
2013-10-2,79.0,66.2,61.0,60.0,57.9,56.0,87,76,51,29.99,29.89,3,0,7,0.00
2013-10-3,74.2,65.7,59.6,61.0,58.1,55.0,88,77,57,29.95,29.84,4,0,7,0.00
2013-10-4,88.0,71.6,56.6,61.0,45.0,19.0,95,52,10,30.04,29.90,4,0,6,0.00
2013-10-5,92.0,77.8,66.6,42.0,25.6,16.0,41,16,6,30.11,30.02,3,1,12,0.00
2013-10-6,95.2,75.1,57.0,42.0,31.1,19.0,49,24,7,30.08,29.96,2,0,4,0.00
2013-10-7,87.6,67.8,56.2,54.0,43.4,-99.9,80,46,19,29.98,29.91,3,-10,5,0.00
2013-10-8,72.8,62.8,55.6,58.0,54.3,48.0,92,75,57,29.95,29.84,7,1,8,0.00
2013-10-9,63.8,56.8,51.0,55.0,51.8,49.0,97,84,67,29.85,29.75,5,0,9,0.66
2013-10-10,68.8,57.0,46.7,54.0,49.9,46.0,98,79,49,30.04,29.83,3,0,8,0.05
2013-10-11,76.9,60.9,48.6,56.0,51.8,47.0,97,75,41,30.06,29.95,1,0,4,0.00
2013-10-12,76.9,62.2,50.6,61.0,54.8,49.0,97,79,45,30.00,29.91,3,0,7,0.00
2013-10-13,70.3,61.9,54.0,57.0,54.6,52.0,93,78,60,30.04,29.95,3,0,7,0.00
2013-10-14,83.8,65.1,49.4,58.0,53.0,47.0,98,70,28,30.04,29.91,2,0,3,0.00
2013-10-15,88.2,67.8,53.7,54.0,42.4,33.0,84,47,15,29.98,29.89,2,0,7,0.00
2013-10-16,87.4,69.3,56.1,46.0,37.2,28.0,65,35,12,30.07,29.98,3,0,6,0.00
2013-10-17,85.6,66.5,52.7,51.0,41.9,33.0,70,46,16,30.05,29.94,2,0,5,0.00
2013-10-18,83.6,66.1,50.9,54.0,47.9,42.0,80,56,26,30.02,29.93,1,0,4,0.00
2013-10-19,87.4,67.2,51.5,56.0,50.3,43.0,83,59,25,30.03,29.96,3,0,4,0.00
2013-10-20,81.7,62.3,48.4,60.0,53.3,46.0,95,75,37,30.00,29.91,3,0,6,0.00
2013-10-21,78.9,62.9,54.2,57.0,54.9,52.0,96,79,41,30.00,29.92,2,0,4,0.00
2013-10-22,74.5,61.1,51.9,60.0,56.2,51.0,97,85,56,30.02,29.92,2,0,4,0.00
2013-10-23,70.7,62.1,58.5,58.0,55.7,55.0,89,80,61,29.99,29.91,2,0,6,0.00
2013-10-24,70.3,62.2,59.4,57.0,55.0,54.0,84,78,60,30.07,29.97,1,0,3,0.00
2013-10-25,72.7,62.7,57.2,59.0,56.1,54.0,94,80,58,30.14,30.01,1,0,3,0.00
2013-10-26,77.1,62.3,51.7,61.0,56.8,51.0,97,84,52,30.11,29.98,1,0,4,0.00
2013-10-27,76.2,60.8,53.6,61.0,56.5,53.0,97,87,54,30.00,29.84,3,0,5,0.01
2013-10-28,62.4,58.1,51.6,57.0,52.8,49.0,93,83,68,29.96,29.85,4,0,10,0.05
2013-10-29,68.0,56.4,47.8,51.0,48.9,46.0,95,78,50,30.04,29.94,3,0,6,0.01
2013-10-30,71.9,58.0,46.7,53.0,49.3,44.0,94,75,47,30.09,30.01,3,0,7,0.00
2013-10-31,79.7,61.4,46.8,51.0,46.4,41.0,92,64,27,30.11,30.00,3,0,4,0.00
2013-11-1,84.5,65.5,50.1,51.0,43.8,36.0,86,51,19,30.11,29.95,2,0,3,0.00
2013-11-2,83.3,65.1,53.3,58.0,46.2,36.0,93,55,20,30.01,29.90,4,0,8,0.00
2013-11-3,69.8,60.9,52.6,56.0,53.6,51.0,95,78,58,29.94,29.84,4,0,8,0.00
2013-11-4,63.5,58.2,50.4,54.0,50.7,47.0,90,77,65,29.96,29.81,2,0,6,0.00
2013-11-5,77.3,60.2,48.5,56.0,37.0,19.0,97,53,14,30.15,29.96,2,0,5,0.00
2013-11-6,81.0,62.0,46.6,40.0,31.4,21.0,59,36,11,30.22,30.10,3,0,4,0.00
2013-11-7,85.5,67.1,50.7,47.0,33.0,23.0,57,33,11,30.13,30.01,1,0,2,0.00
2013-11-8,79.6,62.1,48.5,50.0,41.9,29.0,88,53,19,30.05,29.95,3,0,6,0.00
2013-11-9,79.3,58.4,43.7,54.0,42.9,29.0,98,64,17,30.10,30.02,2,0,5,0.00
2013-11-10,82.8,61.7,50.7,54.0,39.9,21.0,88,54,10,30.16,30.04,3,0,5,0.00
2013-11-11,77.3,61.4,46.8,53.0,46.6,36.0,90,62,29,30.15,30.04,1,0,3,0.00
2013-11-12,74.2,62.1,51.4,57.0,50.7,44.0,90,68,48,30.18,30.07,0,0,1,0.00
2013-11-13,91.1,70.7,55.6,51.0,44.1,39.0,69,42,19,30.07,29.90,1,0,3,0.00
2013-11-14,91.1,70.1,56.2,52.0,40.8,32.0,84,39,13,29.93,29.79,3,0,6,0.00
2013-11-15,64.9,59.6,55.0,57.0,54.5,52.0,94,83,70,29.79,29.69,7,1,9,0.00
2013-11-16,64.1,57.9,53.0,55.0,50.4,46.0,95,78,55,29.96,29.78,5,0,7,0.01
2013-11-17,70.6,58.8,49.6,55.0,50.9,47.0,93,76,50,30.11,29.97,4,0,7,0.00
2013-11-18,69.7,58.4,49.0,56.0,52.3,48.0,97,81,60,30.18,30.07,1,0,5,0.00
2013-11-19,65.0,58.7,54.5,55.0,53.3,52.0,93,83,67,30.11,29.97,3,0,5,0.00
2013-11-20,65.7,59.1,53.6,56.0,54.1,51.0,95,84,65,30.00,29.91,1,0,5,0.04
2013-11-21,61.2,57.3,51.7,60.0,56.5,51.0,98,97,91,29.91,29.86,2,0,5,0.66
2013-11-22,55.7,51.7,49.0,54.0,48.3,43.0,98,88,70,29.98,29.85,2,0,5,0.09
2013-11-23,67.7,54.9,46.5,49.0,45.3,42.0,89,72,43,30.11,29.97,5,0,5,0.00
2013-11-24,67.6,53.9,44.4,52.0,45.9,42.0,93,76,48,30.21,30.10,4,0,6,0.00
2013-11-25,71.6,56.1,44.2,48.0,44.9,42.0,91,69,39,30.26,30.17,1,0,4,0.00
2013-11-26,76.5,60.1,47.2,48.0,42.7,35.0,85,57,30,30.21,30.06,3,0,5,0.00
2013-11-27,74.6,60.4,49.6,48.0,43.5,35.0,77,56,33,30.05,29.90,2,0,5,0.00
2013-11-28,68.2,55.8,47.0,50.0,45.3,40.0,85,70,46,30.08,29.90,4,0,7,0.00
2013-11-29,61.7,55.8,50.8,58.0,52.9,47.0,96,90,80,30.20,30.08,1,0,2,0.15
2013-11-30,73.5,59.0,49.5,54.0,50.4,47.0,95,76,40,30.20,30.09,2,0,3,0.00
2013-12-1,81.6,61.3,49.8,50.0,43.9,34.0,87,59,20,30.22,30.10,2,0,4,0.00
2013-12-2,75.5,59.3,49.9,48.0,41.3,34.0,76,53,30,30.13,29.94,0,0,3,0.00
2013-12-3,62.9,54.9,44.8,54.0,48.3,37.0,87,78,62,29.94,29.79,4,0,9,0.00
2013-12-4,61.4,52.5,46.4,47.0,41.1,37.0,82,66,45,29.99,29.82,3,0,7,0.00
2013-12-5,60.7,49.9,41.1,41.0,38.9,35.0,83,67,39,30.13,29.97,3,0,9,0.00
2013-12-6,57.8,49.4,43.2,43.0,39.6,38.0,81,70,54,30.20,30.12,3,0,7,0.00
2013-12-7,54.3,48.2,42.7,52.0,42.8,38.0,94,82,69,30.15,30.04,2,0,5,0.20
2013-12-8,56.1,45.4,36.7,41.0,38.4,35.0,95,78,50,30.23,30.12,3,0,7,0.00
2013-12-9,61.7,45.4,33.3,35.0,25.5,15.0,89,52,19,30.30,30.20,2,0,7,0.00
2013-12-10,67.0,49.1,35.2,36.0,28.6,19.0,75,50,17,30.28,30.11,2,0,6,0.00
2013-12-11,71.5,53.4,40.3,37.0,31.3,21.0,67,46,17,30.19,30.11,1,0,4,0.00
2013-12-12,69.3,54.0,43.4,48.0,38.7,30.0,88,61,24,30.24,30.16,2,0,6,0.00
2013-12-13,66.0,51.3,39.7,49.0,42.5,35.0,95,74,40,30.25,30.15,3,0,5,0.00
2013-12-14,76.2,56.0,41.5,45.0,37.5,30.0,96,57,19,30.31,30.19,2,0,5,0.00
2013-12-15,83.5,62.1,46.8,48.0,33.0,27.0,55,37,13,30.25,30.08,2,0,4,0.00
2013-12-16,84.6,64.4,52.3,43.0,37.3,33.0,56,39,16,30.14,30.06,1,0,3,0.00
2013-12-17,78.2,64.5,54.7,50.0,43.4,34.0,73,48,29,30.14,30.01,3,0,3,0.00
2013-12-18,71.1,59.8,54.3,55.0,49.2,41.0,90,70,38,30.03,29.87,5,0,7,0.00
2013-12-19,54.7,50.0,42.7,50.0,46.9,42.0,96,89,79,29.89,29.74,2,0,5,0.23
2013-12-20,61.2,49.8,40.9,51.0,45.0,40.0,98,85,63,29.97,29.79,5,0,7,0.00
2013-12-21,60.0,50.2,43.0,50.0,45.1,40.0,94,83,67,30.11,29.95,2,0,6,0.00
2013-12-22,68.8,53.3,42.3,51.0,46.2,41.0,97,79,45,30.28,30.11,1,0,3,0.00
2013-12-23,76.9,58.8,45.9,44.0,40.6,37.0,83,56,24,30.32,30.20,1,0,4,0.00
2013-12-24,77.4,60.1,48.3,46.0,41.3,37.0,71,53,28,30.21,30.10,1,0,3,0.00
2013-12-25,81.2,65.4,50.4,40.0,29.0,9.0,66,30,9,30.20,30.11,3,0,9,0.00
2013-12-26,82.1,64.9,51.6,32.0,22.2,12.0,40,22,9,30.17,30.07,3,0,5,0.00
2013-12-27,83.7,61.4,48.1,38.0,27.9,16.0,50,31,9,30.16,30.06,1,0,3,0.00
2013-12-28,74.2,57.7,45.6,49.0,34.9,25.0,79,46,16,30.07,29.95,4,0,6,0.00
2013-12-29,75.6,61.1,44.8,45.0,24.0,7.0,85,32,8,30.16,30.01,7,1,11,0.00
2013-12-30,75.3,56.6,44.4,37.0,25.8,18.0,54,34,13,30.27,30.16,1,0,3,0.00
2013-12-31,72.3,54.7,43.1,44.0,34.9,24.0,80,51,19,30.22,30.10,3,0,3,0.00
2014-1-1,71.0,54.8,42.0,50.0,42.9,37.0,86,67,36,30.16,30.06,1,0,3,0.00
2014-1-2,78.9,59.5,46.0,44.0,36.9,32.0,74,47,20,30.12,30.02,0,0,3,0.00